Flag for Sweden Weather past 2 weeks in Stockholm, Sweden

Now
34 °F

Light rain. Low clouds.


Feels Like: 31 °F
Forecast: 25 / 37 °F
Wind: 3 mph from South

Location: Stockholm Bromma Airport

Current Time: Jan 27, 2015 at 3:07:19 AM

Latest Report: Jan 27, 2015 at 2:20 AM


Visibility: N/A

Pressure: 29.65 "Hg

Humidity: 100%

Dew point: 34 °F

Location of StockholmLocation

Historic Weather in Stockholm — Graph

°F

Stockholm temperature yesterday

Maximum temperature yesterday: 36 °F (at 8:20 PM)
Minimum temperature yesterday: 28 °F (at 12:20 AM)
Average temperature yesterday: 32 °F

Past Weeks' High & Low Weather Summary

 TemperatureHumidityPressure
High43 °F (Jan 16, 2:20 PM)100% (Jan 12, 10:20 AM)30.24 "Hg (Jan 12, 10:20 AM)
Low16 °F (Jan 23, 7:50 PM)65% (Jan 13, 7:50 AM)28.94 "Hg (Jan 12, 9:20 PM)
Average33 °F87%29.76 "Hg
* Reported Jan 12 1:20 AM — Jan 27 1:50 AM, Stockholm, Weather by CustomWeather, © 2014

Note: Actual official high and low records may vary slightly from our data, if they occured in-between our weather recording intervals... More about our weather records

Advertising

Stockholm weather history for previous 24 hours

 ConditionsComfort  
Time TempWeatherWind HumidityBarometerVisibility
1:50 AM
Jan 27
36 °FDrizzle. Low clouds.5 mph93%29.68 "HgN/A
1:20 AM36 °FDrizzle. Low clouds.5 mph93%29.65 "Hg6 mi
12:50 AM36 °FDrizzle. Low clouds.5 mph93%29.65 "HgN/A
12:20 AM36 °FDrizzle. Low clouds.6 mph93%29.68 "HgN/A
11:50 PM
Jan 26
36 °FDrizzle. Low clouds.7 mph93%29.68 "HgN/A
11:20 PM36 °FDrizzle. Low clouds.7 mph93%29.68 "HgN/A
10:50 PM36 °FDrizzle. Low clouds.8 mph93%29.68 "HgN/A
10:20 PM36 °FDrizzle. Low clouds.8 mph93%29.68 "HgN/A
9:50 PM36 °FRain. Passing clouds.8 mph93%29.68 "HgN/A
9:20 PM36 °FLight rain. Passing clouds.9 mph93%29.68 "HgN/A
8:50 PM36 °FLight rain. Passing clouds.8 mph93%29.71 "HgN/A
8:20 PM36 °FLight rain. Passing clouds.7 mph93%29.71 "HgN/A
7:50 PM34 °FLight rain. Passing clouds.8 mph100%29.71 "HgN/A
7:20 PM34 °FLight rain. Passing clouds.8 mph100%29.71 "HgN/A
6:50 PM34 °FLight rain. Passing clouds.9 mph100%29.74 "HgN/A
6:20 PM34 °FLight rain. Passing clouds.10 mph100%29.74 "HgN/A
5:50 PM34 °FLight rain. Passing clouds.8 mph100%29.74 "HgN/A
5:20 PM34 °FLight snow. Passing clouds.9 mph93%29.74 "HgN/A
4:50 PM34 °FSnow. Passing clouds.10 mph93%29.74 "Hg4 mi
4:20 PM34 °FLight snow. Passing clouds.10 mph93%29.77 "HgN/A
3:50 PM34 °FLight snow. Passing clouds.9 mph93%29.77 "HgN/A
3:20 PM34 °FLight snow. Partly sunny.10 mph87%29.80 "HgN/A
2:50 PM34 °FLight snow. Partly sunny.9 mph87%29.80 "HgN/A
2:20 PM34 °FPartly sunny.7 mph87%29.80 "HgN/A
1:50 PM34 °FPartly sunny.9 mph87%29.83 "HgN/A
1:20 PM34 °FPartly sunny.9 mph87%29.83 "HgN/A
12:50 PM34 °FPartly sunny.8 mph87%29.86 "HgN/A
12:20 PM32 °FPartly sunny.8 mph93%29.86 "HgN/A
11:50 AM32 °FPartly sunny.7 mph93%29.89 "HgN/A
11:20 AM32 °FPartly sunny.10 mph93%29.89 "HgN/A
10:50 AM32 °FPartly sunny.10 mph87%29.92 "HgN/A
10:20 AM32 °FMostly cloudy.9 mph87%29.92 "HgN/A
9:50 AM30 °FBroken clouds.10 mph93%29.95 "HgN/A
9:20 AM30 °FBroken clouds.7 mph86%29.95 "HgN/A
8:50 AM28 °FScattered clouds.8 mph93%29.95 "HgN/A
8:20 AM28 °FPartly sunny.7 mph93%29.98 "HgN/A
7:50 AM28 °FPassing clouds.7 mph93%29.98 "HgN/A
7:20 AM28 °FLow clouds.8 mph93%29.98 "HgN/A
6:50 AM28 °FSnow flurries. Low clouds.8 mph86%29.98 "HgN/A
6:20 AM28 °FSnow flurries. Low clouds.7 mph86%30.01 "HgN/A
5:50 AM28 °FLow clouds.7 mph93%30.01 "HgN/A
5:20 AM28 °FLow clouds.9 mph93%30.04 "HgN/A
4:50 AM28 °FLow clouds.8 mph93%30.04 "HgN/A
4:20 AM28 °FLow clouds.10 mph93%30.04 "HgN/A
3:50 AM28 °FLow clouds.8 mph93%30.04 "HgN/A
3:20 AM28 °FLow clouds.8 mph93%30.04 "HgN/A
Weather by CustomWeather, © 2014

See weather overviewHow to use our weather pages